Satellite-Ground Cal/Val Site Overpasses Predictions

Prediction of Satellite NPP Overpassing Cal/Val Site: Antarctic Dome C

Ground Cal/Val Site Location: Latitude: -75.10, Longitude: 123.35; Satellite-Ground Site NADIR distance within 100 km.

Table of predicted overpasses for the next 14.0 days since TLE Epoch: 4/16/2014
Interval Starting Time Ending Time Minimum Distance Time Minimum Distance (km)
1 04/16/2014 15:06:21 04/16/2014 15:06:43 04/16/2014 15:06:32 67.25
2 04/17/2014 14:47:31 04/17/2014 14:47:57 04/17/2014 14:47:44 41.97
3 04/18/2014 07:49:14 04/18/2014 07:49:35 04/18/2014 07:49:24 67.68
4 04/19/2014 07:30:24 04/19/2014 07:30:51 04/19/2014 07:30:38 40.10
5 04/22/2014 14:53:56 04/22/2014 14:54:25 04/22/2014 14:54:10 6.82
6 04/24/2014 07:36:49 04/24/2014 07:37:18 04/24/2014 07:37:03 3.54
7 04/27/2014 15:00:23 04/27/2014 15:00:51 04/27/2014 15:00:37 30.66
8 04/28/2014 14:41:40 04/28/2014 14:41:58 04/28/2014 14:41:49 76.45
9 04/29/2014 07:43:16 04/29/2014 07:43:43 04/29/2014 07:43:29 33.03
